GFSNW_850_thetae_021.txt.gz
Theta_e
301 302 303 303 305 311 314 313 313 306 311 314 315 318 312 307 306 306 310 310 310 310 308 306 308 310 311 307 307 307 306 305 305 307 308 307 306 308 309 309 309 309 309 310
300 301 302 303 303 307 308 308 307 304 307 311 309 308 306 306 306 307 307 308 307 306 307 305 306 307 309 307 305 306 305 307 307 309 310 309 309 309 307 307 309 309 308 307
301 301 302 303 303 304 304 308 312 307 306 306 308 307 306 306 306 305 306 306 306 306 306 306 306 306 305 305 304 304 304 305 306 307 308 308 307 307 306 306 308 307 306 305
302 302 303 303 303 303 305 309 307 305 309 306 306 306 305 306 307 305 304 306 305 305 304 305 305 306 305 304 304 305 305 306 307 306 306 306 305 305 305 305 305 305 305 305
306 304 303 303 303 303 304 308 308 305 305 304 306 304 306 306 305 304 304 304 305 304 305 305 304 304 304 305 305 305 305 306 306 305 305 304 304 305 305 305 305 305 304 304
308 305 303 302 302 304 304 302 303 307 302 304 306 306 306 305 303 303 304 304 304 305 305 304 303 303 303 304 305 305 305 306 306 305 304 304 305 306 305 304 304 304 304 304
309 304 302 301 301 301 301 300 304 306 306 305 306 304 304 304 303 304 303 303 303 304 302 301 302 303 303 303 303 303 305 305 305 306 305 306 306 305 305 304 304 304 304 304
306 306 301 300 300 300 300 300 304 305 307 306 304 304 304 303 303 303 303 303 302 302 302 305 306 306 305 305 305 305 304 305 306 306 305 305 305 304 304 304 304 304 304 306
306 304 301 299 298 299 299 299 300 304 306 306 304 304 303 305 305 304 303 302 301 301 303 306 306 307 305 304 303 303 304 304 306 306 307 305 304 304 303 303 305 304 304 304
304 304 301 298 298 298 299 299 299 304 306 303 303 305 305 304 304 304 303 302 302 302 305 307 308 307 304 304 303 303 304 305 307 307 308 305 304 303 303 304 305 304 303 303
301 302 300 297 296 297 298 299 299 302 305 305 302 303 303 303 303 304 304 303 303 303 305 305 306 306 305 304 304 303 303 304 304 304 305 304 303 303 303 304 303 304 303 303
299 300 298 296 296 297 298 304 299 299 304 305 302 301 302 302 303 302 302 304 303 304 305 305 305 305 304 304 305 304 303 303 304 304 305 303 302 302 302 303 303 304 303 303
298 299 297 297 297 299 299 303 302 301 303 304 304 303 301 300 301 301 303 303 303 302 303 304 305 304 304 304 303 303 303 302 304 304 303 302 301 301 303 304 303 303 302 301
298 298 298 297 298 301 302 304 304 302 302 303 305 301 300 300 301 301 301 303 301 302 302 302 304 303 302 303 303 303 302 302 302 303 302 302 302 302 302 302 302 301 301 301
310 303 301 307 299 299 302 303 302 303 302 304 303 301 301 300 301 301 301 301 302 301 301 301 302 301 301 301 302 303 302 303 303 305 302 302 303 302 301 301 301 300 300 300
308 305 303 300 300 300 302 304 301 300 302 303 303 302 301 300 300 301 301 302 302 301 300 300 300 300 301 303 303 301 301 301 301 302 302 303 302 301 301 300 299 299 298 298
305 304 302 302 301 300 302 304 301 299 301 302 302 302 302 300 301 301 301 301 301 300 299 299 300 300 301 303 304 301 301 301 302 302 302 301 300 299 298 298 297 296 296 296
304 303 301 302 300 300 301 301 301 300 302 302 302 303 301 300 301 303 302 301 300 298 300 300 301 301 302 303 301 301 302 302 302 301 300 299 298 297 296 295 295 295 295 294
305 302 302 301 300 301 302 301 301 301 301 301 300 302 306 299 303 303 301 302 301 301 300 300 300 301 303 302 302 302 302 301 299 298 297 297 296 295 295 294 294 295 295 295
304 303 302 300 300 301 300 300 300 301 301 300 300 301 303 300 301 302 303 301 302 301 302 301 302 301 301 301 302 301 300 298 297 296 296 295 295 295 295 295 295 294 294 294
303 302 300 301 300 300 299 301 301 300 300 300 300 301 301 299 302 303 302 303 302 301 301 301 302 302 301 301 301 299 298 297 296 295 295 295 294 294 293 294 293 293 293 293
303 301 300 300 299 299 300 301 300 300 302 302 301 300 301 299 300 301 300 302 300 301 300 300 301 302 302 301 300 298 297 296 296 295 294 294 293 293 293 293 293 293 293 293
301 299 299 298 298 301 300 302 301 302 300 301 299 299 298 298 299 300 300 299 300 299 300 301 301 302 301 300 298 296 296 295 295 294 294 294 293 293 293 293 293 292 293 293
301 298 300 301 301 302 304 304 305 302 302 300 299 300 299 299 299 300 300 300 299 300 300 302 302 302 301 298 296 296 296 295 294 294 294 293 293 293 293 293 293 292 292 293
298 298 302 301 302 303 303 304 302 300 300 299 299 299 299 298 299 299 300 300 300 300 301 302 302 301 298 297 296 296 295 294 294 293 293 293 293 292 293 292 293 292 292 293
298 298 302 303 303 304 301 301 301 300 300 299 300 300 301 301 301 300 300 300 300 301 302 301 301 299 297 296 296 295 295 294 294 293 293 293 292 293 292 292 291 291 292 292
297 300 301 304 304 305 302 300 300 300 300 301 301 301 301 301 301 299 300 300 300 301 300 300 299 297 297 296 296 295 294 294 293 293 293 292 292 293 292 291 291 291 291 291

GFSNW_850_thetae_027.txt.gz
Theta_e
305 306 306 305 310 312 313 313 310 310 311 312 311 308 311 308 307 307 308 309 308 307 307 306 307 312 309 307 305 305 303 302 301 302 305 307 306 305 304 302 306 304 301 305
309 308 307 306 305 308 310 308 308 307 310 305 304 307 307 306 308 306 308 308 306 305 306 306 306 310 308 305 304 304 303 301 299 304 307 306 306 306 305 304 302 302 302 305
315 313 310 307 306 305 309 310 307 308 309 308 304 304 306 306 305 305 306 306 306 306 305 305 306 306 308 306 304 306 304 302 300 300 303 304 304 305 304 303 297 303 304 304
316 316 314 310 307 306 309 310 305 308 302 304 305 304 306 306 306 304 305 305 304 304 304 304 305 305 304 305 306 305 304 304 304 304 305 305 305 305 304 304 303 302 303 303
309 315 317 316 310 308 310 310 308 306 305 305 305 304 305 306 303 304 304 305 305 304 304 304 304 304 303 303 304 304 303 302 304 304 304 304 305 304 304 303 303 303 303 303
307 308 314 317 315 309 306 306 307 308 305 305 303 304 306 305 304 303 305 304 303 304 304 304 303 303 303 302 303 302 302 302 302 299 303 304 302 304 304 303 303 302 302 302
304 306 308 312 314 310 305 305 308 308 303 304 304 305 305 304 304 304 304 304 303 304 304 302 303 303 302 302 301 302 302 302 300 299 301 300 302 303 303 303 303 302 302 303
302 304 305 307 311 312 307 303 305 309 303 305 305 304 304 304 303 303 304 304 303 302 302 302 303 303 304 304 302 301 301 300 299 298 298 301 303 304 303 303 302 303 302 302
301 302 303 304 306 310 307 304 302 307 307 303 306 304 304 301 301 303 303 303 303 301 302 304 300 304 304 303 302 303 301 300 300 301 296 297 301 303 303 302 301 302 301 301
300 300 301 301 303 305 308 307 304 304 307 306 305 304 303 304 304 301 303 303 302 303 301 302 301 304 303 301 303 302 300 299 302 302 297 300 302 303 302 299 299 301 301 303
300 300 300 300 301 302 303 306 308 305 303 305 306 304 305 304 305 301 303 302 302 300 300 300 302 299 302 302 301 302 300 297 298 299 297 301 302 301 301 300 301 301 302 302
303 300 299 300 300 300 301 304 306 306 305 304 305 306 303 304 304 304 303 303 303 303 300 300 297 300 298 300 300 301 301 300 299 299 299 301 302 302 301 301 302 302 300 300
317 310 302 300 300 300 300 303 309 306 305 307 305 306 305 303 303 303 304 303 303 303 304 303 299 298 298 298 299 301 300 302 299 299 300 301 301 301 301 302 302 300 299 299
314 314 309 302 301 300 303 306 307 305 305 304 305 305 305 304 301 302 303 304 303 303 303 302 295 296 301 297 299 299 300 300 299 298 300 301 301 301 302 301 298 298 298 296
311 312 313 311 302 303 307 305 301 301 304 305 305 305 303 303 302 301 302 301 302 302 302 300 298 301 300 299 299 300 301 300 297 300 300 300 301 302 301 298 297 296 295 295
309 310 311 307 303 305 305 302 304 304 304 300 299 304 303 302 302 302 301 301 301 302 302 301 301 301 299 290 297 300 301 301 301 300 301 301 301 300 298 297 296 295 295 294
305 308 309 308 306 305 302 304 305 300 301 300 301 302 303 302 301 301 301 302 302 302 302 300 300 300 300 301 300 300 301 300 301 301 300 301 301 297 297 296 295 294 294 293
305 306 309 308 306 304 302 301 303 299 300 302 298 299 302 301 301 301 301 301 302 302 301 300 300 300 300 299 300 300 300 301 301 301 301 299 298 297 296 295 294 294 293 293
305 305 309 306 304 303 302 302 301 302 301 301 300 298 296 301 301 302 302 302 299 300 299 300 300 300 300 300 300 300 300 301 301 301 300 298 297 296 295 294 294 293 293 293
305 307 305 303 302 302 302 301 302 302 301 301 301 299 297 300 302 302 302 301 301 301 300 300 299 299 300 300 301 300 300 301 301 299 298 297 296 295 294 294 293 293 292 292
302 306 304 302 302 302 301 301 301 300 301 301 301 301 299 300 301 301 302 301 298 298 297 297 297 297 299 301 301 300 300 301 300 299 298 296 295 294 294 293 293 292 292 292
302 304 302 302 301 299 300 300 299 300 301 301 301 300 301 301 302 302 301 301 300 300 298 295 297 296 301 301 301 301 301 300 300 299 297 296 295 294 293 293 292 292 291 291
301 301 299 299 298 300 301 300 300 300 300 300 301 299 301 300 301 301 300 301 301 299 293 298 297 300 301 301 301 301 301 300 298 297 296 295 294 293 293 292 292 291 291 291
300 299 297 299 299 300 297 296 300 301 300 301 300 299 300 299 300 300 301 299 297 296 296 297 297 300 301 301 301 301 300 298 297 296 296 295 293 293 292 292 291 291 290 291
300 298 298 299 299 299 300 301 301 302 301 300 299 299 299 298 299 299 299 300 296 295 297 299 300 301 300 301 301 300 299 297 296 296 295 294 293 293 292 292 291 291 291 291
299 298 297 299 299 299 300 302 302 302 300 300 300 298 298 299 299 299 299 297 297 297 298 300 300 301 301 301 301 300 298 297 296 296 295 293 293 293 292 292 291 291 291 291
297 297 300 299 300 300 301 302 302 301 300 297 299 299 300 299 300 298 295 296 296 299 300 301 300 301 302 302 301 298 297 297 296 295 294 293 293 292 292 292 291 291 291 291

GFSNW_850_thetae_030.txt.gz
Theta_e
312 308 306 308 312 315 313 313 305 308 309 311 306 306 308 307 307 307 308 307 306 306 306 305 307 311 309 306 305 304 302 301 301 302 302 304 304 304 301 301 303 303 299 303
316 313 308 306 307 309 309 308 307 308 310 304 302 306 306 305 306 305 307 307 306 305 305 305 305 308 307 304 304 302 301 299 298 302 305 305 305 305 304 303 300 301 302 304
317 317 314 309 307 306 310 311 306 308 309 306 303 303 305 304 305 305 305 305 305 305 305 304 305 308 307 305 304 306 303 299 298 301 302 303 303 304 304 303 297 302 303 304
309 315 318 317 310 308 310 308 306 306 301 303 303 303 305 305 305 304 304 305 304 303 303 304 305 304 304 305 306 305 302 303 303 302 303 304 304 304 304 303 303 302 303 303
307 308 314 319 316 309 310 309 306 305 304 304 304 302 304 305 303 303 303 304 303 303 303 303 303 303 303 302 305 303 301 301 303 302 303 303 304 304 304 303 303 303 303 303
305 306 307 314 319 315 308 308 308 307 304 302 302 303 305 304 303 303 304 304 303 303 303 304 303 303 303 302 301 301 301 301 300 299 301 301 301 302 303 303 302 302 301 302
303 304 305 307 313 316 310 307 308 309 302 303 304 304 304 302 303 303 303 303 302 303 304 302 302 302 301 301 300 302 300 301 299 298 299 298 301 302 302 302 302 302 302 302
302 303 303 305 306 311 312 309 307 309 301 303 304 304 303 303 303 303 303 303 303 303 301 301 302 302 303 303 301 299 300 299 298 297 297 300 301 302 303 302 302 301 301 301
301 302 302 303 304 305 308 310 307 306 306 302 305 304 303 300 300 302 303 302 302 302 302 302 298 303 303 303 302 301 299 299 298 299 296 297 300 302 302 301 300 301 300 300
309 301 301 301 303 304 304 307 308 305 306 307 305 304 302 304 302 300 302 302 302 302 299 301 301 303 303 302 302 301 300 299 301 300 295 299 300 301 302 300 299 300 300 301
318 307 300 301 302 303 302 304 306 305 304 306 306 304 305 304 303 299 302 301 301 299 299 299 300 298 301 301 300 300 300 297 298 298 297 300 301 301 300 299 300 301 301 299
316 316 308 303 301 302 301 303 307 311 309 305 307 306 304 304 304 304 303 302 302 302 298 297 294 300 296 300 301 299 301 299 298 299 299 301 301 301 301 300 301 301 299 298
312 314 316 310 305 302 302 303 308 311 309 309 307 308 307 305 304 304 304 303 304 303 303 302 297 298 296 298 299 300 300 301 299 299 299 300 301 301 301 301 301 299 297 296
308 311 311 313 313 310 305 303 307 310 307 305 309 307 306 305 303 303 303 303 303 303 303 302 294 297 300 296 299 298 301 299 298 298 299 300 301 301 301 301 299 297 296 295
307 307 309 309 310 310 306 305 307 308 307 303 306 307 307 305 304 302 302 302 303 303 302 300 298 300 299 297 296 296 300 300 298 300 300 300 300 300 301 299 297 296 295 294
300 306 305 307 308 307 306 305 307 304 303 304 297 303 303 303 302 302 302 302 302 302 302 301 301 301 300 296 294 299 301 301 301 300 300 300 300 300 299 297 296 295 294 293
295 300 304 306 308 308 306 305 306 305 302 300 301 300 302 302 301 302 301 301 301 301 301 301 300 300 301 292 298 300 302 301 301 301 300 300 300 299 298 296 296 294 293 293
297 300 304 304 306 306 304 306 304 302 301 301 300 297 300 301 301 301 301 301 302 302 302 300 300 300 300 299 300 301 301 301 301 301 301 300 299 298 298 296 294 294 293 293
299 300 305 307 306 304 303 305 303 301 301 301 299 300 295 301 301 301 301 301 297 301 299 300 299 296 299 301 300 300 301 300 301 301 301 300 299 298 297 295 294 293 293 292
299 300 303 304 304 303 304 302 301 301 302 301 301 300 295 300 300 301 300 301 294 300 299 299 299 299 300 301 302 301 300 301 301 300 300 299 298 298 296 294 293 293 292 292
300 301 303 302 303 303 302 301 301 301 300 301 301 301 298 299 300 301 301 298 299 298 296 298 296 297 298 302 302 302 301 300 300 300 301 300 298 296 295 294 293 292 292 291
300 301 301 302 301 299 300 301 300 300 300 300 301 300 300 301 302 302 301 301 299 298 297 296 298 296 302 301 302 302 301 301 300 300 300 298 296 295 294 293 293 292 291 290
300 300 300 300 299 299 301 299 299 299 299 300 300 299 301 300 301 302 301 301 300 297 297 298 297 300 301 301 301 301 301 300 300 299 299 297 296 295 293 293 292 291 291 291
300 299 296 295 298 298 298 296 296 300 300 300 300 300 300 300 300 300 302 299 297 294 295 296 297 302 302 301 301 301 301 300 300 299 297 296 296 294 293 292 292 291 291 291
299 298 297 293 298 299 300 300 299 300 301 300 299 299 300 299 300 299 299 299 297 296 297 296 301 302 301 300 300 301 301 300 300 298 296 296 295 293 293 292 291 291 290 291
299 297 297 297 297 298 298 299 300 300 300 300 299 299 299 300 299 300 298 297 296 297 296 300 304 302 300 301 300 301 301 300 299 297 296 296 294 293 293 292 291 291 291 291
297 297 299 298 299 299 299 300 300 301 300 300 299 300 300 299 300 297 295 296 296 299 300 304 306 301 301 301 301 300 300 300 298 296 296 296 294 293 293 292 292 291 291 291

GFSNW_850_thetae_033.txt.gz
Theta_e
312 307 305 310 313 317 315 313 305 308 309 311 303 306 307 307 306 307 306 306 306 307 305 305 307 310 308 306 304 303 302 300 300 302 301 301 303 303 301 302 303 301 298 302
317 314 308 306 309 310 309 307 308 308 309 304 302 305 305 305 306 305 306 306 305 304 305 304 305 307 307 304 303 302 300 298 299 302 303 304 305 304 303 300 299 300 301 302
313 318 316 310 306 307 310 310 305 308 308 305 302 303 304 304 305 304 305 304 305 304 304 303 304 307 306 304 304 306 303 297 298 303 303 303 302 302 302 301 297 300 303 303
308 313 319 317 310 310 310 308 305 305 301 302 302 303 304 303 304 304 304 304 304 303 302 304 304 304 306 305 305 304 301 301 301 301 300 301 302 303 303 302 301 302 302 301
306 308 313 319 318 312 311 309 306 304 303 303 303 301 304 305 303 302 303 304 303 302 302 301 302 302 301 302 304 303 300 300 302 301 302 302 302 302 302 303 302 302 302 302
305 306 307 311 318 318 311 309 308 306 302 301 302 302 304 304 303 303 304 303 302 302 302 303 303 302 302 302 302 300 300 300 299 298 299 300 300 301 302 302 301 302 302 302
303 304 305 306 311 317 314 309 309 308 302 302 303 304 304 302 303 303 303 303 302 303 304 302 302 302 301 300 301 301 299 300 298 297 298 299 302 300 301 302 301 301 301 301
304 303 304 304 305 309 314 313 309 308 301 302 303 304 303 302 302 303 303 303 303 303 302 299 301 302 302 301 299 298 300 299 297 296 297 300 301 301 300 301 301 301 301 300
316 305 303 303 304 305 306 309 310 308 306 303 305 303 303 300 299 301 302 302 302 302 301 301 297 302 303 302 301 298 298 298 298 298 295 297 300 301 302 300 300 300 300 300
317 317 307 302 305 305 304 305 307 308 307 306 305 303 302 303 301 299 301 302 301 301 299 301 300 303 302 302 302 301 299 298 300 299 294 299 299 300 301 300 299 300 300 301
316 316 315 304 305 305 303 303 306 308 308 309 307 306 305 303 303 300 301 301 300 298 299 299 300 299 301 300 300 300 300 298 298 298 296 301 301 300 300 300 300 300 301 300
310 314 315 315 310 306 305 302 304 308 311 311 311 308 306 305 304 304 303 301 301 301 298 297 295 300 295 300 301 298 301 301 298 299 300 300 301 301 301 300 300 301 299 298
302 305 311 312 312 313 313 307 305 307 310 311 310 310 309 307 305 304 304 302 303 302 302 300 297 298 296 300 299 298 299 300 298 301 299 299 300 302 301 300 301 300 298 297
301 305 305 308 308 309 310 309 308 308 308 305 309 309 308 308 306 305 303 303 302 302 302 302 298 300 300 297 299 298 301 299 300 298 299 300 300 300 300 300 301 300 298 297
295 303 307 306 305 307 307 307 308 307 306 302 307 309 309 307 306 304 303 302 303 302 302 299 297 300 300 298 295 294 299 298 300 301 301 300 300 300 300 300 300 298 297 295
294 295 302 306 306 305 306 307 306 305 303 303 297 303 304 304 304 303 303 302 302 303 302 301 302 301 301 292 293 297 302 302 302 301 301 300 300 300 300 300 298 297 295 294
293 294 295 302 304 306 305 306 305 305 305 303 300 301 302 302 301 302 301 301 301 302 302 300 300 300 301 288 293 301 302 302 302 301 300 299 300 300 300 299 298 296 294 293
295 296 296 298 307 305 304 304 306 305 303 301 298 297 301 301 301 301 301 301 301 301 301 300 299 300 299 293 299 301 302 302 302 302 301 301 300 300 299 298 297 295 294 293
299 299 299 300 304 305 304 303 305 304 303 301 299 300 295 300 300 300 300 301 297 300 299 299 299 295 298 300 300 301 302 302 303 301 301 300 300 299 298 297 295 294 293 292
299 299 299 303 303 303 303 304 302 301 302 301 301 301 299 301 299 300 300 300 293 300 298 299 300 299 300 301 302 304 303 302 301 300 300 299 299 299 298 297 295 293 293 292
299 299 301 302 303 303 303 302 300 301 301 300 301 301 302 300 300 299 300 300 299 299 296 298 298 298 297 303 304 304 303 302 301 301 301 300 300 300 298 296 294 293 292 292
300 300 301 300 301 301 300 301 300 301 302 301 301 301 301 301 301 301 300 302 299 299 295 299 298 297 302 303 303 303 302 301 301 300 300 300 300 299 297 295 294 293 292 291
299 300 300 299 299 298 300 300 300 300 299 300 300 299 300 300 300 301 301 302 300 296 298 299 298 298 302 303 303 302 301 301 300 300 299 299 299 297 295 295 294 292 291 291
298 299 298 297 295 298 296 295 295 299 299 300 300 300 300 300 300 300 304 300 298 297 298 297 296 301 302 301 301 301 301 301 300 300 299 299 298 296 295 294 293 291 291 291
299 299 297 294 296 298 299 299 299 300 300 300 299 299 299 299 300 300 301 299 297 296 296 296 300 303 304 305 305 303 300 300 300 300 299 298 296 296 295 293 292 292 291 291
298 298 297 296 294 297 297 298 299 300 300 300 300 297 298 298 300 300 297 296 296 296 295 298 303 305 304 305 304 302 300 300 299 299 299 297 296 295 294 293 292 292 291 291
297 297 299 298 297 298 298 298 299 299 299 296 299 299 299 298 297 299 298 296 296 298 300 301 303 304 304 305 301 300 300 300 299 299 298 296 296 295 294 293 292 292 291 291

GFSNW_850_thetae_036.txt.gz
Theta_e
310 305 310 313 314 314 317 314 305 308 309 311 302 306 307 306 306 307 306 306 306 307 304 304 306 308 308 305 303 302 301 298 300 302 301 301 303 303 301 303 303 299 298 302
317 312 306 308 312 312 311 307 307 307 309 304 302 304 304 305 305 304 306 305 304 304 303 304 305 307 306 303 302 302 300 298 300 302 302 304 304 303 301 299 298 299 301 302
311 318 314 308 306 308 308 309 303 307 307 305 302 303 304 304 304 304 304 304 304 303 303 302 304 306 306 303 304 305 302 297 299 304 304 302 303 302 301 300 297 300 301 303
307 310 318 316 310 310 310 308 305 304 301 301 301 303 303 302 303 303 304 303 304 303 303 303 303 305 306 304 306 303 299 301 299 299 299 299 299 300 301 301 300 301 302 300
306 307 310 317 317 312 310 308 305 303 302 302 303 301 304 303 303 302 302 303 302 302 301 301 301 302 302 302 303 302 299 300 301 300 301 301 302 302 301 302 302 301 302 302
305 306 307 309 315 317 312 309 306 306 300 300 301 302 302 304 302 302 303 302 301 302 301 303 303 302 301 301 302 301 299 299 299 297 298 299 300 300 301 301 301 301 301 302
308 306 305 306 308 314 314 311 309 308 302 300 302 303 304 302 302 303 303 303 302 302 303 302 302 302 301 300 301 300 298 299 298 297 297 299 303 300 300 301 301 301 301 300
318 313 307 306 310 309 308 312 311 309 302 301 303 303 303 302 302 302 303 302 302 303 302 297 300 300 301 301 298 298 299 299 297 296 296 299 302 300 300 300 302 301 301 300
319 319 315 306 312 313 309 307 308 309 307 305 304 303 302 300 299 300 302 302 302 302 300 300 296 301 302 302 300 297 297 297 297 297 294 298 302 300 301 300 300 299 300 299
315 314 314 313 308 313 312 306 306 307 308 307 305 303 302 302 300 298 301 301 301 301 298 301 300 301 302 301 301 300 298 298 299 298 294 298 298 300 301 300 303 299 300 300
299 312 313 316 315 311 312 307 306 309 310 310 308 306 305 303 303 300 301 300 299 298 298 298 299 298 301 300 299 300 300 298 297 297 296 301 300 299 300 300 300 300 300 301
298 299 306 311 313 313 314 313 312 311 311 311 311 311 309 306 305 304 302 301 301 301 297 295 295 300 295 299 301 297 299 300 298 298 299 300 301 302 302 300 300 300 301 300
297 299 300 299 303 310 310 310 311 311 311 311 309 310 309 309 308 305 304 301 303 302 301 299 296 297 296 299 298 299 297 299 298 298 298 300 301 301 302 301 300 300 300 299
295 297 302 305 303 302 306 308 308 309 308 305 309 309 309 309 308 307 305 303 302 302 301 302 292 295 299 297 298 298 299 298 298 297 300 301 301 301 301 300 300 300 299 298
294 295 298 306 305 304 303 302 304 306 306 303 307 307 307 308 307 306 305 304 302 302 301 298 296 299 298 296 295 293 298 298 298 303 305 302 301 301 301 300 300 300 299 298
293 294 295 299 304 306 303 306 306 306 305 305 299 304 303 304 304 303 302 302 302 302 302 300 301 301 300 290 293 298 302 303 303 303 303 302 301 300 300 300 300 299 298 297
294 293 294 295 301 306 302 304 305 305 304 304 300 300 302 302 301 301 301 301 301 302 302 300 299 300 300 287 290 302 303 303 303 303 302 300 301 301 300 300 299 298 297 295
300 297 295 296 300 303 306 304 303 304 305 303 297 297 301 300 301 301 301 301 301 301 301 299 298 299 298 293 297 303 302 301 302 302 303 302 301 300 300 299 299 298 297 294
300 298 298 298 300 303 302 303 303 303 303 301 298 300 297 300 300 300 300 300 297 299 297 297 298 297 297 297 300 303 302 301 302 303 303 302 300 300 299 298 298 298 296 293
299 299 298 302 302 303 303 303 303 303 302 302 301 300 294 301 299 299 299 299 295 299 299 299 299 300 301 301 303 303 303 302 301 301 300 300 300 299 299 299 298 297 294 293
299 299 299 300 301 301 302 302 301 301 300 300 299 300 300 300 300 300 300 299 297 300 296 299 300 298 301 302 303 304 303 302 301 301 301 300 300 300 299 298 298 295 293 293
299 299 300 299 300 300 301 300 301 301 301 301 301 301 301 301 300 301 300 301 297 298 295 299 299 298 301 303 303 302 302 301 300 300 300 300 299 299 299 298 296 294 293 292
299 299 299 298 299 298 299 301 301 301 299 300 300 298 300 300 300 300 301 302 300 295 298 298 296 298 302 301 301 300 301 301 300 300 300 299 299 299 298 297 295 294 293 291
298 299 297 297 297 298 298 296 296 299 299 299 299 299 300 300 299 300 303 302 297 296 298 296 295 299 304 305 305 304 304 302 299 299 299 299 299 298 297 295 294 294 292 291
298 298 298 297 296 296 297 298 298 299 300 300 299 299 299 298 299 299 299 300 294 295 296 295 300 303 302 303 303 304 305 302 299 299 299 299 298 298 296 295 294 293 292 291
299 298 297 295 294 294 296 298 298 299 299 300 299 296 298 299 297 299 300 297 295 295 293 300 302 302 303 301 303 304 304 303 299 299 299 298 298 297 296 295 294 293 292 291
297 296 298 298 296 297 297 297 299 299 299 294 296 298 297 296 299 299 295 295 295 300 301 300 300 301 301 301 303 302 303 303 303 298 298 298 298 296 295 295 294 293 292 291